This demonstration page uses our WeatherBlox Daily Observations layout. Learn more.

Left ArrowRight Arrow

Hourly Observations for November 9, 2021

Temp ( °F °C ) Dew Point ( °F °C ) Humidity (%) Winds ( mph kmh ) Pressure ( in mb ) Visibility ( mi km ) Precip ( " mm )
12:56 am 00:56 Partly Cloudy 40 4.4 29 -1.7 65 65 NNW 8 13 30.28 1025 10 16 0.00 0.00
1:56 am 01:56 Mostly Cloudy 40 4.4 29 -1.7 65 65 ENE 12 19 30.22 1023 10 16 0.00 0.00
2:56 am 02:56 Clear 41 5 27 -2.8 57 57 ENE 15 24 30.19 1022 10 16 0.00 0.00
3:56 am 03:56 Clear 41 5 27 -2.8 57 57 NW 10 17 30.28 1026 10 16 0.00 0.00
4:56 am 04:56 Partly Cloudy 38 3.3 27 -2.8 65 65 NNW 9 15 30.31 1026 10 16 0.00 0.00
5:56 am 05:56 Clear 37 2.8 27 -2.8 67 67 N 7 11 30.29 1026 10 16 0.00 0.00
6:56 am 06:56 Clear 35 1.7 27 -2.8 72 72 NNW 6 9 30.30 1026 10 16 0.00 0.00
7:56 am 07:56 Sunny 35 1.7 27 -2.8 72 72 N 5 7 30.31 1026 10 16 0.00 0.00
8:56 am 08:56 Sunny 42 5.6 29 -1.7 60 60 NE 7 11 30.32 1027 10 16 0.00 0.00
9:56 am 09:56 Sunny 47 8.3 27 -2.8 46 46 NE 8 13 30.30 1026 10 16 0.00 0.00
10:56 am 10:56 Sunny 52 11.1 26 -3.3 37 37 ENE 10 17 30.28 1025 10 16 0.00 0.00
11:56 am 11:56 Sunny 54 12.2 26 -3.3 34 34 NE 12 19 30.26 1025 10 16 0.00 0.00
12:56 pm 12:56 Sunny 56 13.3 26 -3.3 32 32 ENE 12 19 30.22 1023 10 16 0.00 0.00
1:56 pm 13:56 Sunny 57 13.9 28 -2.2 33 33 ENE 10 17 30.19 1022 10 16 0.00 0.00
2:56 pm 14:56 Sunny 57 13.9 31 -0.6 37 37 ENE 12 19 30.15 1021 10 16 0.00 0.00
3:56 pm 15:56 Sunny 56 13.3 31 -0.6 39 39 E 13 20 30.13 1020 10 16 0.00 0.00
4:56 pm 16:56 Sunny 51 10.6 30 -1.1 44 44 E 8 13 30.12 1020 10 16 0.00 0.00
5:56 pm 17:56 Clear 45 7.2 29 -1.7 54 54 E 7 11 30.12 1020 10 16 0.00 0.00
6:56 pm 18:56 Clear 45 7.2 28 -2.2 52 52 ESE 7 11 30.12 1020 10 16 0.00 0.00
7:56 pm 19:56 Clear 40 4.4 30 -1.1 68 68 E 8 13 30.10 1019 10 16 0.00 0.00
8:56 pm 20:56 Clear 44 6.7 34 1.1 68 68 ESE 8 13 30.08 1019 10 16 0.00 0.00
9:56 pm 21:56 Clear 43 6.1 35 1.7 74 74 SE 9 15 30.06 1018 10 16 0.00 0.00
10:56 pm 22:56 Cloudy 46 7.8 36 2.2 68 68 ESE 10 17 30.02 1017 10 16 0.00 0.00
11:56 pm 23:56 Cloudy 46 7.8 38 3.3 73 73 S 5 7 30.01 1016 10 16 0.00 0.00

Powered by AerisWeather